WZZ106 LDZA-LDSP

Flight info

Callsign WZZ106
Flight time N/A
Altitude 26000
Route NIVES Y137 PALEZ L862 SPL
Aircraft A20N/M-SDE2E3FGHIRWXY/LB1

Departure

Time 2026-04-27 12:39
Airport Zagreb Franjo Tuđman International Airport (LDZA)

Arrival

Time N/A
Airport Split Saint Jerome Airport (LDSP)
Time Latitude Longitude Altitude Speed Heading
2026-04-27 12:16 45.73997 16.07561 366 ft 0 kts 134°
2026-04-27 12:27 45.73999 16.07558 357 ft 2 kts 134°
2026-04-27 12:27 45.74012 16.07538 366 ft 3 kts 132°
2026-04-27 12:28 45.74022 16.07522 363 ft 3 kts 130°
2026-04-27 12:34 45.74020 16.07525 365 ft 2 kts 125°
2026-04-27 12:34 45.74029 16.07555 362 ft 4 kts 26°
2026-04-27 12:34 45.74058 16.07529 364 ft 8 kts 315°
2026-04-27 12:35 45.74063 16.07467 358 ft 9 kts 248°
2026-04-27 12:35 45.74090 16.07373 357 ft 14 kts 315°
2026-04-27 12:35 45.74175 16.07257 363 ft 19 kts 317°
2026-04-27 12:35 45.74191 16.07113 368 ft 18 kts 227°
2026-04-27 12:36 45.74088 16.06957 361 ft 24 kts 227°
2026-04-27 12:36 45.73963 16.06767 361 ft 28 kts 226°
2026-04-27 12:36 45.73842 16.06584 364 ft 20 kts 226°
2026-04-27 12:36 45.73746 16.06437 361 ft 16 kts 240°
2026-04-27 12:37 45.73781 16.06341 362 ft 4 kts 317°
2026-04-27 12:37 45.73804 16.06312 366 ft 0 kts 318°
2026-04-27 12:37 45.73818 16.06293 363 ft 6 kts 317°
2026-04-27 12:37 45.73865 16.06252 366 ft 8 kts
2026-04-27 12:38 45.73904 16.06286 369 ft 0 kts 45°
2026-04-27 12:39 45.73990 16.06415 365 ft 56 kts 47°
2026-04-27 12:39 45.74456 16.07121 368 ft 140 kts 47°
2026-04-27 12:39 45.75200 16.08244 970 ft 154 kts 48°
2026-04-27 12:39 45.75673 16.09537 1920 ft 151 kts 90°
2026-04-27 12:40 45.75535 16.11088 2687 ft 171 kts 101°
2026-04-27 12:40 45.75265 16.12914 3135 ft 202 kts 102°
2026-04-27 12:40 45.74985 16.14982 3714 ft 224 kts 100°
2026-04-27 12:40 45.74716 16.17274 4464 ft 241 kts 99°
2026-04-27 12:41 45.74457 16.19709 5287 ft 254 kts 99°
2026-04-27 12:41 45.74199 16.22262 6117 ft 262 kts 98°
2026-04-27 12:41 45.73942 16.24856 6724 ft 265 kts 98°
2026-04-27 12:41 45.73686 16.27455 6967 ft 268 kts 98°
2026-04-27 12:42 45.73383 16.30096 6990 ft 269 kts 107°
2026-04-27 12:42 45.72432 16.32331 6998 ft 263 kts 137°
2026-04-27 12:42 45.71076 16.34097 6992 ft 264 kts 142°
2026-04-27 12:42 45.69663 16.35783 7078 ft 265 kts 146°
2026-04-27 12:43 45.68027 16.36967 7718 ft 264 kts 169°
2026-04-27 12:43 45.66238 16.36986 8756 ft 255 kts 198°
2026-04-27 12:43 45.64708 16.35813 9755 ft 251 kts 223°
2026-04-27 12:43 45.63457 16.34057 10635 ft 254 kts 229°
2026-04-27 12:44 45.62274 16.32203 11475 ft 258 kts 230°
2026-04-27 12:44 45.61054 16.30282 12356 ft 263 kts 230°
2026-04-27 12:44 45.59808 16.28342 13238 ft 267 kts 230°
2026-04-27 12:44 45.58535 16.26378 14104 ft 272 kts 230°
2026-04-27 12:45 45.57237 16.24387 14879 ft 276 kts 230°
2026-04-27 12:45 45.55886 16.22319 15320 ft 296 kts 230°
2026-04-27 12:45 45.54444 16.20119 15884 ft 306 kts 229°
2026-04-27 12:45 45.52995 16.17919 16895 ft 303 kts 230°
2026-04-27 12:46 45.51554 16.15736 17797 ft 303 kts 230°
2026-04-27 12:46 45.50114 16.13549 18505 ft 310 kts 230°
2026-04-27 12:46 45.48625 16.11288 19142 ft 316 kts 230°
2026-04-27 12:46 45.47110 16.08992 19817 ft 320 kts 230°
2026-04-27 12:47 45.45576 16.06670 20489 ft 324 kts 230°
2026-04-27 12:47 45.44019 16.04315 21166 ft 329 kts 230°
2026-04-27 12:47 45.42441 16.01930 21832 ft 333 kts 230°
2026-04-27 12:47 45.40846 15.99525 22509 ft 336 kts 230°
2026-04-27 12:48 45.39234 15.97092 23129 ft 340 kts 230°
2026-04-27 12:48 45.37595 15.94623 23732 ft 345 kts 231°
2026-04-27 12:48 45.35939 15.92188 24222 ft 350 kts 227°
2026-04-27 12:48 45.34004 15.90023 24683 ft 361 kts 215°
2026-04-27 12:49 45.31678 15.88488 24898 ft 379 kts 199°
2026-04-27 12:49 45.29026 15.87858 25072 ft 396 kts 182°
2026-04-27 12:49 45.26247 15.88299 25256 ft 411 kts 165°
2026-04-27 12:49 45.23509 15.89659 25440 ft 423 kts 160°
2026-04-27 12:50 45.20667 15.90947 25631 ft 435 kts 167°
2026-04-27 12:50 45.17645 15.91515 25869 ft 442 kts 180°
2026-04-27 12:50 45.14613 15.91175 26126 ft 445 kts 193°
2026-04-27 12:50 45.11666 15.89921 26165 ft 441 kts 206°
2026-04-27 12:51 45.09003 15.87832 26173 ft 436 kts 218°
2026-04-27 12:51 45.06720 15.85044 26180 ft 432 kts 229°
2026-04-27 12:51 45.04592 15.82033 26168 ft 434 kts 226°
2026-04-27 12:51 45.02201 15.79404 26165 ft 438 kts 215°
2026-04-27 12:52 44.99520 15.77336 26170 ft 440 kts 208°
2026-04-27 12:52 44.96730 15.75537 26161 ft 441 kts 205°
2026-04-27 12:52 44.94851 15.74431 26161 ft 442 kts 204°
2026-04-27 12:52 44.91990 15.72827 26160 ft 442 kts 204°
2026-04-27 12:53 44.85332 15.69158 26152 ft 442 kts 204°
2026-04-27 12:53 44.82474 15.67557 26146 ft 441 kts 204°
2026-04-27 12:53 44.79626 15.65945 26145 ft 441 kts 204°
2026-04-27 12:54 44.76780 15.64322 26134 ft 441 kts 204°
2026-04-27 12:54 44.74897 15.63245 26136 ft 441 kts 204°
2026-04-27 12:54 44.72055 15.61617 26134 ft 441 kts 204°
2026-04-27 12:54 44.69211 15.59989 26123 ft 441 kts 204°
2026-04-27 12:55 44.66375 15.58367 26132 ft 440 kts 204°
2026-04-27 12:55 44.63532 15.56767 26131 ft 441 kts 202°
2026-04-27 12:55 44.60570 15.55645 26127 ft 443 kts 191°
2026-04-27 12:55 44.56490 15.55451 26131 ft 446 kts 174°
2026-04-27 12:56 44.54435 15.56016 26127 ft 446 kts 164°
2026-04-27 12:56 44.51569 15.57534 26130 ft 447 kts 156°
2026-04-27 12:56 44.48757 15.59389 26128 ft 447 kts 153°
2026-04-27 12:56 44.45993 15.61399 26124 ft 448 kts 152°
2026-04-27 12:57 44.43247 15.63471 26126 ft 450 kts 152°
2026-04-27 12:57 44.40444 15.65595 26122 ft 466 kts 152°
2026-04-27 12:57 44.37552 15.67763 26117 ft 475 kts 152°
2026-04-27 12:57 44.34624 15.69926 26122 ft 477 kts 152°
2026-04-27 12:58 44.31688 15.72069 26117 ft 476 kts 153°
2026-04-27 12:58 44.28748 15.74199 26107 ft 476 kts 153°
2026-04-27 12:58 44.25808 15.76319 26118 ft 476 kts 153°
2026-04-27 12:58 44.22907 15.78405 26119 ft 475 kts 153°
2026-04-27 12:59 44.19969 15.80515 26130 ft 475 kts 153°
2026-04-27 12:59 44.17030 15.82625 26120 ft 475 kts 153°
2026-04-27 12:59 44.14096 15.84729 26118 ft 475 kts 153°
2026-04-27 12:59 44.11156 15.86838 26119 ft 475 kts 153°
2026-04-27 13:00 44.08219 15.88943 26116 ft 475 kts 153°
2026-04-27 13:00 44.05280 15.91049 26116 ft 475 kts 153°
2026-04-27 13:00 44.02344 15.93150 26121 ft 475 kts 153°
2026-04-27 13:00 43.99405 15.95251 26121 ft 475 kts 153°
2026-04-27 13:01 43.96455 15.97358 26039 ft 482 kts 153°
2026-04-27 13:01 43.93476 15.99482 25792 ft 493 kts 153°
2026-04-27 13:01 43.90460 16.01771 25544 ft 495 kts 146°
2026-04-27 13:01 43.87826 16.04836 25294 ft 495 kts 132°
2026-04-27 13:02 43.85843 16.08694 25046 ft 487 kts 116°
2026-04-27 13:02 43.84527 16.12929 24834 ft 471 kts 109°
2026-04-27 13:02 43.83431 16.17131 24590 ft 457 kts 108°
2026-04-27 13:02 43.82387 16.21252 24173 ft 450 kts 108°
2026-04-27 13:03 43.81359 16.25311 23710 ft 444 kts 108°
2026-04-27 13:03 43.80338 16.29320 23169 ft 439 kts 108°
2026-04-27 13:03 43.79339 16.33226 22639 ft 434 kts 108°
2026-04-27 13:03 43.78335 16.37134 22121 ft 429 kts 109°
2026-04-27 13:04 43.77343 16.40995 21597 ft 423 kts 109°
2026-04-27 13:04 43.76364 16.44812 21090 ft 418 kts 109°
2026-04-27 13:04 43.75399 16.48584 20586 ft 414 kts 109°
2026-04-27 13:04 43.74397 16.52289 20084 ft 409 kts 115°
2026-04-27 13:05 43.72813 16.55511 19594 ft 404 kts 134°
2026-04-27 13:05 43.70640 16.57907 19125 ft 398 kts 148°
2026-04-27 13:05 43.68313 16.59927 18653 ft 393 kts 149°
2026-04-27 13:05 43.65960 16.61684 18143 ft 387 kts 160°
2026-04-27 13:06 43.63345 16.62448 17390 ft 385 kts 179°
2026-04-27 13:06 43.60659 16.62404 16609 ft 386 kts 184°
2026-04-27 13:06 43.57972 16.62218 15835 ft 388 kts 185°
2026-04-27 13:06 43.55273 16.62019 15095 ft 389 kts 185°
2026-04-27 13:07 43.52570 16.61812 14370 ft 389 kts 185°
2026-04-27 13:07 43.49872 16.61604 13626 ft 389 kts 184°
2026-04-27 13:07 43.47177 16.61382 12832 ft 386 kts 185°
2026-04-27 13:07 43.44533 16.61166 12061 ft 375 kts 185°
2026-04-27 13:08 43.41966 16.60947 11313 ft 365 kts 185°
2026-04-27 13:08 43.39498 16.60725 10592 ft 356 kts 184°
2026-04-27 13:08 43.37063 16.60483 9864 ft 347 kts 184°
2026-04-27 13:08 43.34691 16.60217 9091 ft 338 kts 185°
2026-04-27 13:09 43.32376 16.59946 8331 ft 330 kts 185°
2026-04-27 13:09 43.30117 16.59677 7587 ft 323 kts 185°
2026-04-27 13:09 43.27892 16.59402 6747 ft 319 kts 185°
2026-04-27 13:09 43.25756 16.58658 5877 ft 319 kts 205°
2026-04-27 13:10 43.24004 16.56836 5005 ft 318 kts 228°
2026-04-27 13:10 43.22941 16.54220 4325 ft 312 kts 250°
2026-04-27 13:10 43.22393 16.51469 4065 ft 294 kts 255°
2026-04-27 13:10 43.21940 16.48781 4012 ft 288 kts 256°
2026-04-27 13:11 43.21565 16.46076 4006 ft 290 kts 263°
2026-04-27 13:11 43.21651 16.43384 4004 ft 273 kts 281°
2026-04-27 13:11 43.22319 16.41066 3908 ft 255 kts 301°
2026-04-27 13:11 43.23446 16.39214 3608 ft 252 kts 314°
2026-04-27 13:12 43.24724 16.37568 3258 ft 252 kts 317°
2026-04-27 13:12 43.25864 16.35779 3033 ft 248 kts 295°
2026-04-27 13:12 43.26370 16.33538 3004 ft 247 kts 282°
2026-04-27 13:12 43.26854 16.31301 3006 ft 249 kts 284°
2026-04-27 13:13 43.27267 16.28998 3001 ft 249 kts 282°
2026-04-27 13:13 43.27650 16.26682 3003 ft 249 kts 282°
2026-04-27 13:13 43.28030 16.24369 3000 ft 249 kts 281°
2026-04-27 13:13 43.28412 16.22056 3006 ft 248 kts 282°
2026-04-27 13:14 43.28790 16.19742 2998 ft 248 kts 282°
2026-04-27 13:14 43.29167 16.17433 3000 ft 248 kts 281°
2026-04-27 13:14 43.29546 16.15120 3003 ft 248 kts 282°
2026-04-27 13:14 43.29919 16.12845 3006 ft 241 kts 282°
2026-04-27 13:15 43.30305 16.10663 2998 ft 237 kts 289°
2026-04-27 13:15 43.31074 16.08666 3004 ft 237 kts 302°
2026-04-27 13:15 43.32076 16.06863 3002 ft 238 kts 315°
2026-04-27 13:15 43.33400 16.05526 3003 ft 237 kts 336°
2026-04-27 13:16 43.34992 16.05120 2998 ft 234 kts
2026-04-27 13:16 43.36495 16.05823 3003 ft 224 kts 30°
2026-04-27 13:16 43.37784 16.06911 3002 ft 212 kts 35°
2026-04-27 13:16 43.38993 16.08029 2999 ft 208 kts 36°
2026-04-27 13:17 43.40192 16.09147 2994 ft 209 kts 36°
2026-04-27 13:17 43.41381 16.10246 2994 ft 209 kts 36°
2026-04-27 13:17 43.42591 16.11357 3008 ft 208 kts 35°
2026-04-27 13:17 43.43774 16.12437 3023 ft 198 kts 35°
2026-04-27 13:18 43.44814 16.13635 3034 ft 207 kts 50°
2026-04-27 13:18 43.45657 16.15414 3487 ft 240 kts 65°
2026-04-27 13:18 43.46393 16.17681 3637 ft 264 kts 68°
2026-04-27 13:18 43.47119 16.19896 3691 ft 246 kts 68°
2026-04-27 13:19 43.47885 16.22185 3846 ft 283 kts 67°
2026-04-27 13:19 43.48748 16.24812 4068 ft 319 kts 68°
2026-04-27 13:19 43.49667 16.27585 4248 ft 308 kts 66°